[[{"header":{"parameterUnit":"m.s-1","parameterCategory":1,"la1":30.2991,"la2":30.254,"lo1":-89.0895,"lo2":-89.0444,"dy":0.0017,"dx":0.0017,"nx":28,"ny":28,"refTime":"2024-04-13T21:00:00:Z","depth":0,"parameterNumber":2,"parameterNumberName":"U-component_of_WINDS"},"data":[0,0,0,0,0,0,0,0,0,0,0,0,0,0,0,0,0,0,0,0,0,0,0,0,0,0,0,0,0,0,0,0,0,0,0,0,0,0,0,0,0,0,0,0,0,0,0,0,0,0,0,0,0,0,0,0,0,0,0.409,0.409,0,0.4122,0.4122,0.4123,0.411,0.4109,0.4108,0.4107,0.4144,0.4146,0.4148,0,0,0,0,0,0,0,0,0,0,0,0,0,0.4019,0.4021,0.409,0.409,0.409,0.4122,0.4122,0.4123,0.411,0.4109,0.4108,0.4107,0.4144,0.4146,0.4148,0,0,0,0,0,0,0,0,0,0,0,0,0,0.4051,0.4021,0.409,0.4088,0.4088,0.4122,0.4122,0.4123,0.411,0.4109,0.4108,0.4107,0.4143,0.4146,0.4148,0.4187,0,0,0.4156,0.4157,0,0,0,0,0,0,0,0,0.4049,0.4053,0.4088,0.4088,0.4088,0.411,0.4111,0.4145,0.411,0.4102,0.4107,0.4106,0.4134,0.4138,0.4146,0.4189,0.419,0.4156,0.4158,0.4159,0.416,0,0,0,0,0,0,0,0.4047,0.4052,0.4103,0.4088,0.4088,0.4086,0.4089,0.4117,0.4124,0.4102,0.4101,0.4105,0.4134,0.4144,0.4147,0.4191,0.4156,0.4158,0.416,0.4161,0.4265,0.4266,0,0,0,0,0,0,0.4044,0.405,0.4102,0.4103,0.4065,0.4088,0.4092,0.4105,0.4124,0.4126,0.4106,0.4104,0.414,0.4144,0.4148,0.4193,0.4159,0.4161,0.4163,0.4264,0.4265,0.4266,0,0,0,0,0,0,0.4043,0.4049,0.41,0.4077,0.4083,0.4091,0.4105,0.4106,0.4115,0.4127,0.4128,0.4114,0.4139,0.4145,0.4177,0.4194,0.4162,0.4165,0.4262,0.4264,0.4266,0.4284,0,0,0,0,0,0,0.4041,0.4048,0.4063,0.4077,0.4084,0.4127,0.4106,0.4107,0.4119,0.4117,0.4135,0.4137,0.4139,0.4173,0.4179,0.4197,0.4167,0.4261,0.4263,0.4265,0.4282,0.4287,0.429,0,0,0,0,0,0.4038,0.4068,0.4064,0.407,0.4102,0.4128,0.4133,0.4133,0.4121,0.4135,0.4142,0.4136,0.4192,0.4176,0.4183,0.4202,0.4259,0.4262,0.4265,0.428,0.4286,0.429,0,0,0,0,0,0,0.4058,0.407,0.4065,0.4101,0.4113,0.4126,0.4145,0.4139,0.4157,0.4155,0.4156,0.416,0.4193,0.4201,0.4184,0.424,0.4224,0.4228,0.4233,0.4238,0.4242,0.4239,0.4169,0,0,0,0,0,0.4066,0.4086,0.4096,0.4126,0.4132,0.4137,0.4149,0.4148,0.4162,0.4168,0.4177,0.4192,0.4212,0.4226,0.4246,0.4284,0.4287,0.43,0.4304,0.4308,0.4311,0.433,0.4335,0.4275,0.4275,0.4275,0,0,0.4084,0.4093,0.4106,0.413,0.414,0.416,0.4142,0.4165,0.418,0.4172,0.4201,0.4209,0.4225,0.426,0.4276,0.4268,0.4328,0.4311,0.4314,0.4315,0.4333,0.4339,0.4344,0.4277,0.4277,0.4277,0,0,0.4126,0.4135,0.416,0.417,0.4184,0.4187,0.4193,0.4206,0.421,0.424,0.4233,0.4252,0.4287,0.4298,0.4309,0.4353,0.4347,0.436,0.4381,0.4399,0.4404,0.4408,0.4422,0.4427,0.4363,0.4363,0.4363,0,0.4147,0.4176,0.4174,0.4196,0.4207,0.4198,0.4223,0.4233,0.4254,0.4262,0.4252,0.4295,0.4306,0.4342,0.4352,0.4362,0.4368,0.4357,0.4403,0.4407,0.4411,0.4424,0.443,0.4364,0.4364,0.4364,0.4364,0,0.4199,0.422,0.4238,0.4256,0.4268,0.4292,0.4295,0.4308,0.4306,0.4309,0.4339,0.4351,0.4372,0.4381,0.438,0.4416,0.441,0.4402,0.4386,0.4418,0.443,0.4436,0.4366,0.4366,0.4365,0.4365,0,0,0.4255,0.427,0.4277,0.4284,0.4298,0.4314,0.4337,0.4356,0.4366,0.4381,0.44,0.4429,0.442,0.4432,0.4432,0.4448,0.448,0.4438,0.4438,0.4444,0.4519,0.4524,0.453,0.4477,0.4478,0.4479,0.4517,0,0.4297,0.4336,0.4334,0.4371,0.4389,0.438,0.44,0.4411,0.4415,0.4431,0.4436,0.4456,0.4444,0.4451,0.4467,0.4473,0.4495,0.447,0.4494,0.4495,0.4489,0.4537,0.4543,0.4579,0.4522,0.4523,0.4524,0,0.4351,0.4364,0.4402,0.4411,0.4419,0.4437,0.4452,0.4468,0.4481,0.4482,0.4494,0.4491,0.4515,0.4498,0.453,0.4513,0.4523,0.4527,0.4528,0.453,0.4511,0.4539,0.4591,0.4595,0.4532,0.4531,0.4531,0,0.4386,0.4414,0.4439,0.4446,0.4458,0.447,0.4476,0.4487,0.4497,0.4512,0.4518,0.4536,0.4546,0.456,0.4561,0.4549,0.4593,0.4577,0.4595,0.4595,0.4604,0.4603,0.4657,0.4612,0.4612,0.4612,0.4612,0,0.4432,0.4455,0.4454,0.447,0.4495,0.4493,0.4519,0.4523,0.4533,0.4549,0.4544,0.456,0.4562,0.4578,0.458,0.4605,0.461,0.4612,0.4612,0.4612,0.4611,0.4618,0.4615,0.4614,0.4613,0.4613,0.4613,0,0.4475,0.4476,0.4502,0.4511,0.4513,0.4531,0.4539,0.4554,0.4556,0.4577,0.4582,0.4587,0.4606,0.4609,0.4632,0.4633,0.4663,0.4661,0.4658,0.4657,0.4675,0.4672,0.4733,0.4741,0.4693,0.4693,0.4693,0,0.4504,0.452,0.453,0.4539,0.4545,0.4562,0.4571,0.457,0.4581,0.4595,0.4608,0.4626,0.464,0.467,0.4677,0.4694,0.4692,0.4712,0.4694,0.4693,0.469,0.4688,0.4689,0.4715,0.4715,0.4716,0.4716,0,0.4554,0.4553,0.4566,0.458,0.4591,0.4603,0.4613,0.4622,0.4622,0.4634,0.4652,0.4663,0.4685,0.4702,0.4719,0.4726,0.4721,0.4721,0.4726,0.4726,0.4722,0.4723,0.4666,0.472,0.472,0.4719,0.4719,0.4719,0.4589,0.4603,0.4611,0.4626,0.4633,0.4643,0.4656,0.466,0.4674,0.469,0.4689,0.4709,0.472,0.4741,0.4749,0.4764,0.4758,0.4765,0.4767,0.4768,0.4769,0.4721,0.4768,0.4768,0.4767,0.4767,0.4767,0,0.4638,0.4642,0.4656,0.4669,0.4681,0.4674,0.4684,0.4695,0.4711,0.4721,0.4734,0.4754,0.4771,0.4777,0.4794,0.4805,0.4803,0.4809,0.4808,0.4809,0.4775,0.4768,0.481,0.481,0.481,0.481,0.481,0.481,0.4664,0.4686,0.4686,0.4711,0.4716,0.4733,0.474,0.4748,0.4756,0.4777,0.479,0.4794,0.4802,0.4819,0.4833,0.4835,0.4841,0.4847,0.4848,0.4816,0.4812,0.4807,0.4801,0.4849,0.4849,0.4881,0.4881,0.4881]},{"header":{"parameterUnit":"m.s-1","parameterCategory":1,"la1":30.2991,"la2":30.254,"lo1":-89.0895,"lo2":-89.0444,"dy":0.0017,"dx":0.0017,"nx":28,"ny":28,"refTime":"2024-04-13T21:00:00:Z","depth":0,"parameterNumber":3,"parameterNumberName":"V-component_of_WINDS"},"data":[0,0,0,0,0,0,0,0,0,0,0,0,0,0,0,0,0,0,0,0,0,0,0,0,0,0,0,0,0,0,0,0,0,0,0,0,0,0,0,0,0,0,0,0,0,0,0,0,0,0,0,0,0,0,0,0,0,0,4.5053,4.5054,0,4.5121,4.5122,4.5123,4.5067,4.5065,4.5063,4.506,4.5126,4.513,4.5134,0,0,0,0,0,0,0,0,0,0,0,0,0,4.4869,4.4873,4.5053,4.5054,4.5055,4.5121,4.5122,4.5123,4.5068,4.5065,4.5062,4.5059,4.5125,4.513,4.5134,0,0,0,0,0,0,0,0,0,0,0,0,0,4.4944,4.4874,4.5053,4.5035,4.5034,4.5121,4.5122,4.5123,4.5068,4.5065,4.5061,4.5058,4.5123,4.5129,4.5135,4.5241,0,0,4.5153,4.5155,0,0,0,0,0,0,0,0,4.494,4.4951,4.5037,4.5037,4.5036,4.5082,4.5081,4.5162,4.5069,4.5055,4.506,4.5056,4.5114,4.5121,4.5141,4.5244,4.5247,4.5153,4.5157,4.5159,4.5161,0,0,0,0,0,0,0,4.4935,4.4948,4.508,4.5038,4.5038,4.5022,4.5029,4.5096,4.5103,4.5056,4.5052,4.5061,4.5113,4.5135,4.5142,4.5248,4.5153,4.5158,4.5162,4.5164,4.5438,4.5442,0,0,0,0,0,0,4.4932,4.4944,4.5078,4.5082,4.4979,4.5028,4.5036,4.5071,4.5102,4.5104,4.5064,4.5059,4.5127,4.5135,4.5144,4.5268,4.5159,4.5165,4.5168,4.5434,4.5439,4.5443,0,0,0,0,0,0,4.4929,4.4945,4.5075,4.5012,4.5027,4.5035,4.5075,4.5074,4.5096,4.5109,4.5109,4.5086,4.5125,4.5136,4.5217,4.527,4.5168,4.5173,4.543,4.5436,4.5441,4.5519,0,0,0,0,0,0,4.4924,4.4944,4.4986,4.5013,4.5031,4.5148,4.5078,4.5078,4.5107,4.51,4.5129,4.5131,4.5123,4.5208,4.5223,4.5276,4.5177,4.5425,4.5432,4.5439,4.5512,4.5526,4.5539,0,0,0,0,0,4.4917,4.5005,4.4988,4.5005,4.5084,4.5152,4.5161,4.5152,4.5112,4.5152,4.516,4.513,4.5262,4.5217,4.5233,4.5289,4.5422,4.543,4.5439,4.5505,4.5523,4.5539,0,0,0,0,0,0,4.4982,4.5008,4.499,4.5089,4.5119,4.5142,4.5194,4.5172,4.5212,4.5204,4.5189,4.5196,4.5281,4.5293,4.5242,4.5391,4.5335,4.5347,4.538,4.5398,4.5411,4.5406,4.5182,0,0,0,0,0,4.5008,4.5063,4.5082,4.5167,4.5183,4.5186,4.5215,4.5205,4.5235,4.5247,4.526,4.5289,4.5336,4.5368,4.5412,4.5513,4.5517,4.5559,4.5573,4.5584,4.5594,4.5646,4.5664,4.5471,4.5471,4.547,0,0,4.5062,4.5083,4.5118,4.5181,4.5203,4.5257,4.5197,4.5258,4.5298,4.5255,4.5332,4.5344,4.5374,4.5465,4.5505,4.5477,4.5649,4.5595,4.5604,4.5608,4.5656,4.5675,4.5691,4.5476,4.5475,4.5474,0,0,4.5188,4.5211,4.5283,4.5306,4.534,4.5341,4.5358,4.5385,4.5391,4.5468,4.5437,4.5483,4.5566,4.5588,4.5611,4.5743,4.5716,4.5758,4.583,4.588,4.5896,4.5909,4.5954,4.5971,4.5768,4.5769,4.5769,0,4.525,4.5334,4.5323,4.5386,4.5414,4.5378,4.545,4.5472,4.5519,4.5537,4.5506,4.5608,4.5626,4.572,4.5753,4.5773,4.579,4.5754,4.5895,4.5908,4.592,4.5963,4.598,4.5773,4.5773,4.5772,4.5772,0,4.5407,4.5465,4.552,4.5566,4.5599,4.5667,4.5664,4.5699,4.5686,4.5689,4.5767,4.5788,4.5835,4.5857,4.5844,4.5949,4.593,4.5897,4.584,4.5943,4.5983,4.6,4.578,4.5779,4.5777,4.5776,0,0,4.5576,4.5615,4.5635,4.5655,4.5689,4.5732,4.5797,4.5844,4.5873,4.5906,4.5958,4.6028,4.5997,4.6022,4.6012,4.6056,4.6157,4.6017,4.6018,4.6041,4.6271,4.6294,4.6314,4.614,4.6143,4.6145,4.6267,0,4.5702,4.5816,4.5808,4.5914,4.5966,4.5933,4.5988,4.6014,4.6019,4.6062,4.6066,4.6116,4.6073,4.6087,4.613,4.6136,4.6203,4.6127,4.6186,4.6188,4.6178,4.6335,4.636,4.6475,4.6283,4.6286,4.6288,0,4.5865,4.5904,4.6016,4.604,4.6061,4.6112,4.6153,4.6196,4.6223,4.6223,4.6251,4.6232,4.6295,4.6237,4.6321,4.627,4.6293,4.63,4.6304,4.6308,4.6243,4.6341,4.6511,4.6528,4.6313,4.6311,4.6309,0,4.5974,4.6055,4.6131,4.6149,4.618,4.6216,4.623,4.6254,4.6282,4.6318,4.6335,4.6378,4.64,4.6432,4.6424,4.6384,4.651,4.6452,4.651,4.651,4.6537,4.6535,4.6712,4.6555,4.6555,4.6555,4.6554,0,4.6115,4.6184,4.6181,4.6228,4.6304,4.6292,4.6367,4.6376,4.6398,4.6444,4.6418,4.6462,4.645,4.6492,4.6487,4.6556,4.6567,4.6567,4.6565,4.6569,4.6569,4.6583,4.6574,4.6559,4.6558,4.6557,4.6556,0,4.625,4.6251,4.6332,4.6354,4.6361,4.6416,4.6434,4.6477,4.6479,4.6538,4.6552,4.6555,4.6604,4.6599,4.6654,4.665,4.6736,4.6724,4.6727,4.6724,4.6781,4.6775,4.6971,4.6995,4.6825,4.6827,4.6828,0,4.6339,4.6392,4.6419,4.6449,4.6466,4.6515,4.6543,4.6533,4.6563,4.6598,4.6636,4.6683,4.6719,4.6799,4.6805,4.6846,4.6834,4.69,4.684,4.6842,4.6833,4.6829,4.6833,4.6911,4.6913,4.6915,4.6916,0,4.6496,4.6494,4.6537,4.658,4.6614,4.6647,4.6677,4.6703,4.6695,4.673,4.678,4.6809,4.6865,4.691,4.6949,4.6961,4.6937,4.6935,4.695,4.6955,4.6953,4.6953,4.6757,4.6931,4.6929,4.6928,4.6927,4.6927,4.661,4.6654,4.668,4.6728,4.675,4.6778,4.6819,4.6826,4.6868,4.6914,4.6905,4.696,4.6984,4.7034,4.705,4.7092,4.7067,4.709,4.7095,4.7101,4.7106,4.6948,4.7099,4.7098,4.7098,4.7098,4.7097,0,4.6764,4.6779,4.6823,4.6866,4.6903,4.6878,4.6909,4.6941,4.6991,4.7016,4.7053,4.7109,4.7153,4.7162,4.7203,4.7235,4.7225,4.7246,4.7243,4.7245,4.7127,4.7108,4.7253,4.7253,4.7253,4.7253,4.7253,4.7253,4.6848,4.6921,4.6921,4.7004,4.7017,4.7073,4.7092,4.7117,4.7137,4.7201,4.7238,4.7244,4.7262,4.7304,4.7342,4.7343,4.7359,4.7384,4.7381,4.727,4.7254,4.7239,4.7222,4.7388,4.7388,4.7496,4.7497,4.7498]}]]